Weather History for Torrington, WY

Change the Weather History Date:

Thursday, February 14, 2013

  Actual Average Record
Temperature  
Mean Temperature 24 °F 31 °F  
Max Temperature 32 °F 45 °F 58 °F (2011)
Min Temperature 15 °F 17 °F -2 °F (2007)
Degree Days  
Heating Degree Days 41 34  
Month to date heating degree days 468 492  
Since 1 July heating degree days 4094 4387  
Cooling Degree Days 0 0  
Month to date cooling degree days 0 0  
Year to date cooling degree days 0 0  
Moisture  
Dew Point 20 °F    
Average Humidity 73    
Maximum Humidity 92    
Minimum Humidity 53    
Precipitation  
Precipitation 0.01 in 0.01 in 0.08 in (2014)
Month to date precipitation 0.06 0.16  
Year to date precipitation 0.16 0.42  
Sea Level Pressure  
Sea Level Pressure 30.19 in    
Wind  
Wind Speed 13 mph (NW)    
Max Wind Speed 31 mph    
Max Gust Speed 39 mph    
Visibility 8 miles    
Events Snow    
T = Trace of Precipitation, MM = Missing Value Source: NWS Daily Summary

Daily Weather History Graph

Daily Weather History Graph

Search for Another Location

Airport:

Trip Planner

Search our weather history database for the weather conditions in past years. The results will help you decide how hot, cold, wet, or windy it might be!

Date:

Astronomy

Feb. 14, 2013 Rise Set
Actual Time 6:53 AM MST 5:28 PM MST
Civil Twilight 6:24 AM MST 5:57 PM MST
Nautical Twilight 5:52 AM MST 6:30 PM MST
Astronomical Twilight 5:19 AM MST 7:02 PM MST
Moon 8:51 AM MST (2/14) 10:40 PM MST (2/14)
Length of Visible Light 11h 32m
Length of Day
10h 35m
Waxing Crescent, 22% of the Moon is Illuminated
Feb 14
Waxing Crescent
Feb 17
First Quarter
Feb 25
Full
Mar 4
Last Quarter
Mar 11
New

Hourly Weather History & Observations

Time (MST) Temp. Windchill Dew Point Humidity Pressure Visibility Wind Dir Wind Speed Gust Speed Precip Events Conditions
12:53 AM 30.9 °F 24.3 °F 27.0 °F 85% 30.04 in 10.0 mi WNW 6.9 mph - 0.00 in   Overcast
1:53 AM 30.9 °F 27.5 °F 27.0 °F 85% 30.03 in 10.0 mi NNW 3.5 mph - N/A   Overcast
2:53 AM 30.9 °F 23.5 °F 27.0 °F 85% 30.04 in 10.0 mi NW 8.1 mph - N/A   Overcast
3:53 AM 28.9 °F 23.9 °F 24.1 °F 82% 30.04 in 10.0 mi NW 4.6 mph - N/A   Overcast
4:51 AM 30.2 °F 18.1 °F 26.6 °F 86% 30.01 in 3.0 mi NW 18.4 mph 28.8 mph 0.00 in Snow Light Snow
4:53 AM 30.9 °F 18.7 °F 27.0 °F 85% 30.05 in 2.5 mi NW 19.6 mph 26.5 mph 0.00 in Snow Light Snow
5:05 AM 30.2 °F 17.8 °F 26.6 °F 86% 30.01 in 5.0 mi NW 19.6 mph 27.6 mph 0.00 in Snow Light Snow
5:18 AM 30.2 °F 19.3 °F 28.4 °F 93% 30.01 in 2.0 mi WNW 15.0 mph 24.2 mph 0.00 in Snow Light Snow
5:27 AM 30.2 °F 20.8 °F 28.4 °F 93% 30.01 in 8.0 mi WNW 11.5 mph - 0.00 in Snow Light Snow
5:43 AM 30.2 °F 21.3 °F 28.4 °F 93% 30.02 in 1.8 mi WNW 10.4 mph - 0.00 in Snow Light Snow
5:53 AM 30.0 °F 20.5 °F 28.0 °F 92% 30.08 in 1.0 mi NW 11.5 mph - 0.00 in Snow Light Snow
6:04 AM 30.2 °F 18.9 °F 28.4 °F 93% 30.05 in 0.8 mi NNW 16.1 mph 21.9 mph 0.01 in Snow Light Snow
6:19 AM 26.6 °F 11.4 °F 23.0 °F 86% 30.07 in 0.8 mi North 25.3 mph 38.0 mph 0.01 in Snow Light Snow
6:26 AM 26.6 °F 12.4 °F 21.2 °F 80% 30.07 in 1.5 mi North 21.9 mph 34.5 mph 0.01 in Snow Light Snow
6:34 AM 26.6 °F 12.7 °F 21.2 °F 80% 30.07 in 3.0 mi North 20.7 mph 28.8 mph 0.01 in Snow Light Snow
6:50 AM 26.6 °F 13.8 °F 21.2 °F 80% 30.08 in 10.0 mi North 17.3 mph 27.6 mph 0.01 in   Overcast
6:53 AM 26.1 °F 14.0 °F 19.9 °F 78% 30.16 in 10.0 mi North 15.0 mph 26.5 mph 0.01 in   Overcast
7:53 AM 26.1 °F 16.8 °F 19.0 °F 75% 30.21 in 10.0 mi NNW 9.2 mph - N/A   Overcast
8:53 AM 27.0 °F 13.5 °F 19.0 °F 72% 30.24 in 10.0 mi NW 19.6 mph 27.6 mph N/A   Overcast
9:35 AM 26.6 °F 12.7 °F 19.4 °F 74% 30.19 in 10.0 mi NW 20.7 mph 26.5 mph N/A   Overcast
9:53 AM 27.0 °F 13.9 °F 19.9 °F 75% 30.28 in 10.0 mi NW 18.4 mph 24.2 mph 0.00 in   Overcast
10:11 AM 26.6 °F 13.8 °F 19.4 °F 74% 30.19 in 10.0 mi NNW 17.3 mph 25.3 mph N/A   Scattered Clouds
10:46 AM 28.4 °F 16.2 °F 19.4 °F 69% 30.21 in 10.0 mi NW 17.3 mph 27.6 mph N/A   Overcast
10:53 AM 27.0 °F 13.9 °F 19.0 °F 72% 30.31 in 10.0 mi NW 18.4 mph 27.6 mph N/A   Overcast
11:07 AM 26.6 °F 14.3 °F 19.4 °F 74% 30.22 in 9.0 mi NW 16.1 mph 24.2 mph 0.00 in Snow Light Snow
11:30 AM 26.6 °F 12.0 °F 19.4 °F 74% 30.22 in 2.5 mi NNW 23.0 mph 29.9 mph 0.00 in Snow Light Snow
11:38 AM 26.6 °F 12.4 °F 19.4 °F 74% 30.21 in 5.0 mi NNW 21.9 mph 29.9 mph 0.00 in Snow Light Snow
11:53 AM 28.0 °F 13.6 °F 16.0 °F 61% 30.31 in 10.0 mi NNW 24.2 mph 32.2 mph 0.00 in   Scattered Clouds
12:53 PM 28.0 °F 14.3 °F 14.0 °F 56% 30.30 in 10.0 mi NNW 21.9 mph 31.1 mph 0.00 in   Scattered Clouds
1:53 PM 28.0 °F 13.9 °F 16.0 °F 61% 30.30 in 10.0 mi NNW 23.0 mph 31.1 mph N/A   Partly Cloudy
2:53 PM 30.0 °F 17.2 °F 15.1 °F 54% 30.31 in 10.0 mi NW 20.7 mph 27.6 mph N/A   Clear
3:53 PM 28.9 °F 17.3 °F 15.1 °F 56% 30.33 in 10.0 mi NW 16.1 mph 24.2 mph N/A   Clear
4:53 PM 27.0 °F 16.1 °F 14.0 °F 58% 30.34 in 10.0 mi NW 12.7 mph - N/A   Clear
5:53 PM 24.1 °F 14.4 °F 12.0 °F 60% 30.35 in 10.0 mi NW 9.2 mph - N/A   Clear
6:53 PM 19.9 °F 10.1 °F 10.9 °F 68% 30.39 in 10.0 mi NNW 8.1 mph - N/A   Clear
7:53 PM 19.0 °F 10.0 °F 10.9 °F 71% 30.39 in 10.0 mi NNW 6.9 mph - N/A   Mostly Cloudy
8:53 PM 19.0 °F 12.3 °F 10.9 °F 71% 30.40 in 10.0 mi NW 4.6 mph - N/A   Mostly Cloudy
9:53 PM 17.1 °F 8.7 °F 10.9 °F 77% 30.41 in 10.0 mi WNW 5.8 mph - N/A   Mostly Cloudy
10:53 PM 17.1 °F 8.7 °F 10.9 °F 77% 30.41 in 10.0 mi WNW 5.8 mph - N/A   Overcast
11:53 PM 19.0 °F 9.0 °F 12.0 °F 74% 30.39 in 10.0 mi NW 8.1 mph - N/A   Overcast